Weather in Nikolo-Pavlovskoe

Russia / Sverdlovsk Oblast     57°47′11″N   60°03′11″E
temp.,
°C
wind,
m/s
gust,
m/s
humid.,
%
clouds,
%
prec.,
mm/h
press.,
hPa
HPBL,
m
14 may, fri
fri1423:00+18w11525 0.0 102511
02:00+16wsw11582 0.0 102511
05:00+15wsw21642 0.0 102611
08:00+21wsw25475 0.0 1025257
11:00+26w47295 0.0 10251954
14:00+28w46245 0.0 10232569
17:00+28w46251 0.0 10222683
20:00+23w26405 0.0 1022145
15 may, sat
sat1523:00+18wsw311560 0.0 1022203
02:00+17wsw3116243 0.0 1021255
05:00+16wsw311675 0.0 1021228
08:00+21wsw411508 0.0 1021450
11:00+25wsw61236100 0.0 10201756
14:00+27w7103161 0.0 10192255
17:00+28w6103080 0.0 10182704
20:00+24w4104541 0.0 1018617
16 may, sun
sun1623:00+18sw2275100 1.1 101930
02:00+17wsw3116973 0.0 1018277
05:00+17wsw4136443 0.0 1018313
08:00+21wsw41351100 0.0 1018464
11:00+27wsw611275 0.0 10181456
14:00+29w711205 0.0 10172847
17:00+29w69225 0.0 10163022
20:00+25wsw410361 0.0 1016565
17 may, mon
mon1723:00+21wsw413480 0.0 1016371
02:00+19wsw4125369 0.0 1016324
05:00+16sw2106547 0.0 1016187
08:00+22wsw41046100 0.1 1016419
11:00+26wsw5837100 0.1 10151173
14:00+27w6113098 0.0 10142702
17:00+26w593688 0.0 10132602
20:00+17sw267615 1.8 1015199
18 may, tue
tue1823:00+17wsw37739 2.6 1015123
02:00+14wnw22770 0.0 101528
05:00+14wsw11775 0.0 101521
08:00+19wnw37605 0.0 1016520
11:00+22nw474647 0.3 10152029
14:00+19nne3562100 0.4 1016553
17:00+18n357287 2.6 1017443
20:00+14ne4786100 0.4 1018519